Probability
0 0 0 0 0 0 0 0 0 0 0 0 0 0 0 0 0 0 0 0 0 0 0 0 0 0 0 0 0 0 0 0 0 0 0 0 0 0
0 0 0 0 0 0 0 0 0 0 0 0 0 0 0 0 0 0 0 0 0 0 0 0 0 0 0 0 0 0 0 0 0 0 0 0 0 0
0 0 0 0 0 0 0 0 0 0 0 0 0 0 0 0 0 0 0 0 0 0 0 0 0 0 0 0 0 0 0 0 0 0 0 0 0 0
0 0 0 0 0 0 0 0 0 0 0 0 0 0 0 0 0 0 0 0 0 0 0 0 0 0 0 0 0 0 0 0 0 0 0 0 0 0
0 0 0 0 0 0 0 0 0 0 0 0 0 0 0 0 0 0 0 0 0 0 0 0 0 0 0 0 0 0 0 0 0 0 0 0 0 0
0 0 0 0 0 0 0 0 0 0 0 0 0 0 0 0 0 0 0 0 0 0 0 0 0 0 0 0 0 0 0 0 0 0 0 0 0 0
0 0 0 0 0 0 0 0 0 0 0 0 0 0 0 0 0 0 0 0 0 0 0 0 0 0 0 0 0 0 0 0 0 0 0 0 0 0
0 0 0 0 0 0 0 0 0 0 0 0 0 0 0 0 0 0 0 0 0 0 0 0 0 0 0 0 0 0 0 0 0 0 0 0 0 0
0 0 0 0 0 0 0 0 0 0 0 0 0 0 0 0 0 0 0 0 0 0 0 0 0 0 0 0 0 0 0 0 0 0 0 0 0 0
0 0 0 0 0 0 0 0 0 0 0 0 0 0 0 0 0 0 0 0 0 0 0 0 0 0 0 0 0 0 0 0 0 0 0 0 0 0
0 0 0 0 0 0 0 0 0 0 0 0 0 0 0 0 0 0 0 0 0 0 0 0 0 0 0 0 0 0 0 0 0 0 0 0 0 0
0 0 0 0 0 0 0 0 0 0 0 0 0 0 0 0 0 0 0 0 0 0 0 0 0 0 0 0 0 0 0 0 0 0 0 0 0 0
0 0 0 0 0 0 0 0 0 0 0 0 0 0 0 0 0 0 0 0 0 0 0 0 0 0 0 0 0 0 0 0 0 0 0 0 0 0
0 0 0 0 0 0 0 0 0 0 0 0 0 0 0 0 0 0 0 0 0 0 0 0 0 0 0 0 0 0 0 0 0 0 0 0 0 0
0 0 0 0 0 0 0 0 0 0 0 0 0 0 0 0 0 0 0 0 0 0 0 0 0 0 0 0 0 0 0 0 0 0 0 0 0 0
0 0 0 0 0 0 0 0 0 0 0 0 0 0 0 0 0 0 0 0 0 0 0 0 0 0 0 0 0 0 0 0 0 0 0 0 0 0
0 0 0 0 0 0 0 0 0 0 0 0 0 0 0 0 0 0 0 0 0 0 0 0 0 0 0 0 0 0 0 0 0 0 0 0 0 0
0 0 0 0 0 0 0 0 0 0 0 0 0 0 0 0 0 0 0 0 0 0 0 0 0 0 0 0 0 0 0 0 0 0 0 0 0 0
0 0 0 0 0 0 0 0 0 0 0 0 0 0 0 0 0 0 0 0 0 0 0 0 0 0 0 0 0 0 0 0 0 0 0 0 0 0
0 0 0 0 0 0 0 0 0 0 0 0 0 0 0 0 0 0 0 0 0 0 0 0 0 0 0 0 0 0 0 0 0 0 0 0 0 0
0 0 0 0 0 0 0 0 0 0 0 0 0 0 0 0 0 0 0 0 0 0 0 0 0 0 0 0 0 0 0 0 0 0 0 0 0 0
0 0 0 0 0 0 0 0 0 0 0 0 0 0 0 0 0 0 0 0 0 0 0 0 0 0 0 0 0 0 0 0 0 0 0 0 0 0
0 0 0 0 0 0 0 0 0 0 0 0 0 0 0 0 0 0 0 0 0 0 0 0 0 0 0 0 0 0 0 0 0 0 0 0 0 0
Wind_Speed
15 16 14 12 11 11 10 11 11 12 12 11 8 9 9 8 11 10 11 15 20 21 20 20 20 20 19 19 18 17 16 15 14 13 12 11 10 9
12 14 15 12 11 10 10 10 11 12 13 8 7 6 8 7 10 10 11 13 15 18 19 19 19 19 19 19 18 17 16 16 15 14 13 12 11 10
14 15 16 14 11 10 10 10 10 11 14 11 6 4 7 8 7 8 8 8 8 15 18 18 19 19 19 19 18 18 17 16 15 14 13 12 12 11
16 15 16 12 15 12 10 12 11 11 11 13 7 4 6 7 6 6 6 5 6 11 17 19 19 19 19 19 18 17 16 15 15 14 14 13 12 12
15 16 16 15 15 12 12 11 9 8 9 10 8 4 3 3 3 3 4 5 6 8 14 17 19 18 18 19 18 17 16 15 15 14 14 13 13 13
14 14 14 14 14 13 11 11 9 9 8 8 7 3 3 3 3 4 5 5 5 5 9 10 13 16 18 18 18 16 16 16 16 15 14 13 14 13
12 12 12 12 13 11 9 9 9 8 7 6 6 3 4 4 5 5 5 4 4 5 5 6 7 7 10 14 15 15 16 17 16 15 15 14 14 14
11 10 10 10 12 13 13 13 11 10 8 7 6 6 6 6 5 5 5 4 4 5 6 5 5 6 6 6 13 17 18 18 17 16 15 15 15 14
10 9 7 6 9 8 9 11 10 11 11 8 7 7 6 7 7 7 6 5 4 4 5 4 5 7 5 7 15 16 17 17 16 16 16 15 15 14
9 8 8 7 7 7 6 6 5 5 6 6 6 5 4 5 7 6 6 4 3 2 4 4 4 4 4 5 12 15 16 16 16 16 15 15 15 14
6 6 7 7 8 10 7 6 5 3 2 4 4 3 5 7 8 6 6 4 3 3 4 3 2 2 2 4 7 13 14 15 16 15 15 15 14 14
4 4 5 7 8 10 7 7 6 5 4 3 3 4 4 6 8 6 6 5 3 3 5 4 3 3 2 2 3 5 7 12 14 15 15 15 14 9
4 4 4 7 8 8 7 5 7 6 5 5 4 4 3 3 3 3 2 3 3 2 5 5 3 3 2 2 2 3 4 4 6 8 12 14 14 11
5 4 4 8 8 7 6 6 8 7 4 4 4 3 3 3 3 3 3 3 3 2 5 5 3 4 3 2 2 3 3 4 4 5 5 8 12 14
4 6 7 8 7 5 6 8 6 4 4 4 4 3 3 3 4 4 4 4 4 4 3 2 2 3 3 3 2 2 2 3 4 4 4 5 5 5
4 5 8 8 6 6 5 5 3 3 3 4 3 3 3 4 3 3 3 3 2 2 2 1 1 3 3 3 3 3 3 3 3 4 4 5 5 5
6 4 4 4 4 4 4 3 3 3 3 3 4 4 4 3 3 2 2 3 3 3 3 2 1 1 2 2 3 4 4 3 3 3 4 5 6 6
6 5 5 5 5 5 4 4 3 3 3 3 3 4 4 4 3 3 2 3 3 3 3 3 3 2 2 4 7 5 4 4 3 3 4 5 6 5
5 4 4 4 4 4 4 3 3 3 3 3 3 3 3 3 3 3 3 3 3 3 2 3 3 4 4 4 4 7 4 3 3 3 4 5 6 5
3 4 4 4 4 4 3 3 3 3 3 3 3 3 3 3 4 4 4 4 3 3 3 3 4 5 5 3 2 3 6 4 4 4 4 4 5 7
3 3 3 3 3 3 3 3 3 3 3 3 3 3 3 3 3 3 3 4 4 3 4 4 4 4 2 1 2 3 3 6 6 4 3 4 4 4
3 3 2 3 3 3 3 3 3 3 3 3 3 3 3 3 3 4 4 4 4 4 3 2 2 3 4 5 5 4 3 2 5 8 9 7 4 4
2 2 2 2 2 2 2 3 3 3 3 3 2 2 2 2 2 3 3 3 3 3 3 2 2 3 4 4 5 4 4 3 3 3 5 8 11 13
Wind_Direction
228 229 231 233 232 231 232 234 245 260 260 248 232 214 218 220 217 219 224 221 223 228 227 225 223 223 224 225 226 227 225 225 228 232 236 240 247 255
226 229 231 232 233 231 231 232 234 248 262 259 250 224 203 213 213 217 222 219 220 223 224 225 226 225 225 224 226 228 227 227 229 231 236 241 246 253
226 228 232 231 232 231 229 229 231 235 253 262 253 234 207 210 211 214 216 216 216 216 220 222 224 224 223 222 224 226 227 228 229 231 236 241 247 253
228 228 231 230 231 231 230 230 232 231 242 257 249 223 217 210 209 208 208 211 213 211 216 222 224 223 221 222 222 225 226 228 229 232 236 241 247 252
228 228 230 228 231 230 230 232 233 231 235 248 253 226 195 168 184 198 206 215 215 216 218 222 223 224 222 221 221 221 222 225 228 231 234 239 245 251
229 229 230 229 231 230 230 232 231 232 232 238 245 226 180 155 169 192 208 209 213 208 218 221 222 221 222 221 220 219 218 222 226 229 232 238 244 250
228 229 230 229 229 228 226 226 224 231 229 230 237 223 192 178 198 189 205 194 202 199 208 211 210 214 215 221 219 217 219 222 225 229 233 237 241 248
229 228 227 223 227 227 229 228 224 227 230 227 230 226 217 200 186 179 179 178 210 192 199 208 200 211 210 212 215 215 217 222 224 229 234 237 241 248
225 225 225 221 219 224 224 227 231 230 228 225 228 225 210 193 179 184 190 192 198 159 179 200 192 215 209 214 214 216 218 222 225 230 235 238 244 247
220 217 216 215 210 205 207 213 216 221 221 223 229 226 205 178 178 179 170 146 103 137 176 201 191 209 203 212 219 219 222 223 225 230 235 239 244 249
217 212 210 213 206 197 195 199 201 215 209 194 196 181 164 160 155 141 147 152 173 181 186 203 179 189 203 214 218 223 226 227 228 231 235 240 245 249
203 205 210 208 199 192 195 192 199 200 170 141 130 129 134 148 158 165 166 167 160 183 179 185 164 166 210 204 210 217 225 231 232 234 238 240 244 246
199 200 199 193 194 192 192 197 196 173 161 153 143 132 126 132 144 143 147 162 171 172 161 173 170 181 206 191 201 211 218 224 229 236 240 242 243 242
195 190 186 182 183 184 188 180 165 153 146 148 151 153 154 153 137 124 106 81 65 104 156 168 173 180 183 202 214 196 212 222 228 236 239 245 246 246
178 170 165 166 164 166 167 159 153 152 154 162 169 165 148 134 123 114 100 95 83 74 118 160 179 181 202 218 215 194 207 216 219 231 235 239 243 243
156 147 147 147 141 133 138 143 146 153 161 164 151 132 126 135 141 142 143 143 146 132 108 125 187 196 213 226 230 231 216 219 210 225 238 246 246 242
145 136 139 145 149 148 139 136 137 141 146 144 143 145 150 151 148 144 146 160 182 176 166 157 152 211 257 237 232 232 229 232 228 219 230 250 248 243
145 154 162 165 169 167 161 154 154 159 157 151 153 157 162 165 159 157 166 184 200 198 184 166 165 177 209 233 223 236 231 235 234 223 232 253 261 251
153 158 163 167 167 164 161 160 162 156 151 156 160 163 162 164 166 173 180 191 203 203 191 174 184 199 227 244 197 206 227 230 231 234 235 244 263 272
150 155 158 158 158 160 161 159 153 152 158 164 166 167 170 174 180 186 190 198 202 202 200 195 203 211 228 258 251 203 215 228 235 245 251 257 268 279
145 140 142 147 149 152 154 155 156 162 164 166 172 175 177 182 189 192 194 191 202 210 217 218 210 205 221 222 241 235 219 226 237 248 258 266 273 270
128 130 129 133 139 144 148 151 154 159 163 169 174 176 180 187 193 196 199 200 206 215 227 214 157 176 200 224 245 254 244 232 249 253 252 246 256 267
121 125 125 128 126 129 139 151 157 159 162 167 169 172 175 183 190 197 201 205 205 207 211 205 192 202 219 233 249 257 255 249 248 254 253 255 261 272